When you browse on this site, cookies collect data to enhance your experience and personalize the content and advertising you see.
Visit our Privacy Policy to learn more. By continuing to use the site, you agree to this use of cookies and data.
  • In Czech Republic
  • List of Countries
  • For 7 days
  • Water Temperature
  • Satellite Maps
  • Weather Map
  • Weather Widgets
  • user-avatar
    Login

    Hourly Weather Bafoussam

    Today, 26 April, Friday

    Time Temperature Precipitation Wind Pressure Humidity
    00:00 +21°C° 0 mm 1 mps 644 mmHg 90%
    01:00 +20°C° 0 mm 1 mps 644 mmHg 90%
    02:00 +20°C° 0 mm 1 mps 644 mmHg 89%
    03:00 +20°C° 0 mm 1 mps 644 mmHg 88%
    04:00 +20°C° 0 mm 1 mps 643 mmHg 87%
    05:00 +21°C° 0 mm 1 mps 644 mmHg 86%
    06:00 +21°C° 0 mm 1 mps 644 mmHg 85%
    07:00 +21°C° 0 mm 1 mps 644 mmHg 84%
    08:00 +24°C° 0 mm 1 mps 645 mmHg 75%
    09:00 +26°C° 0 mm 1 mps 646 mmHg 66%
    10:00 +29°C° 0 mm 1 mps 647 mmHg 56%
    11:00 +30°C° 0 mm 1 mps 647 mmHg 51%
    12:00 +30°C° 0 mm 2 mps 646 mmHg 45%
    13:00 +31°C° 0 mm 2 mps 646 mmHg 39%
    14:00 +31°C° 0 mm 2 mps 646 mmHg 40%
    15:00 +31°C° 0 mm 2 mps 645 mmHg 41%
    16:00 +30°C° 0 mm 2 mps 644 mmHg 42%
    17:00 +28°C° 0.1 mm 1 mps 644 mmHg 53%
    18:00 +26°C° 0.1 mm 1 mps 643 mmHg 64%
    19:00 +23°C° 0.1 mm 1 mps 643 mmHg 76%
    20:00 +23°C° 0 mm 1 mps 643 mmHg 80%
    21:00 +22°C° 0 mm 1 mps 644 mmHg 84%
    22:00 +22°C° 0 mm 1 mps 644 mmHg 89%
    23:00 +21°C° 0 mm 1 mps 644 mmHg 90%

    Tomorrow, 27 April, Saturday

    Time Temperature Precipitation Wind Pressure Humidity
    00:00 +21°C° 0 mm 1 mps 643 mmHg 92%
    01:00 +21°C° 0 mm 1 mps 643 mmHg 93%
    02:00 +21°C° 0 mm 1 mps 643 mmHg 91%
    03:00 +20°C° 0 mm 1 mps 642 mmHg 89%
    04:00 +20°C° 0 mm 1 mps 642 mmHg 88%
    05:00 +21°C° 0 mm 1 mps 642 mmHg 85%
    06:00 +21°C° 0 mm 1 mps 643 mmHg 83%
    07:00 +21°C° 0 mm 1 mps 643 mmHg 81%
    08:00 +21°C° 0 mm 0 mps 644 mmHg 73%
    09:00 +24°C° 0 mm 0 mps 645 mmHg 65%
    10:00 +26°C° 0 mm 0 mps 646 mmHg 57%
    11:00 +29°C° 0 mm 1 mps 646 mmHg 51%
    12:00 +30°C° 0 mm 1 mps 646 mmHg 46%
    13:00 +31°C° 0 mm 1 mps 646 mmHg 40%
    14:00 +30°C° 0 mm 1 mps 645 mmHg 42%
    15:00 +30°C° 0 mm 1 mps 644 mmHg 43%
    16:00 +29°C° 0 mm 1 mps 644 mmHg 44%
    17:00 +27°C° 0 mm 1 mps 643 mmHg 55%
    18:00 +25°C° 0 mm 1 mps 643 mmHg 67%
    19:00 +23°C° 0 mm 1 mps 643 mmHg 78%
    20:00 +23°C° 0 mm 1 mps 643 mmHg 82%
    21:00 +22°C° 0 mm 1 mps 644 mmHg 85%
    22:00 +22°C° 0 mm 1 mps 644 mmHg 89%
    23:00 +22°C° 0 mm 1 mps 644 mmHg 90%

    Day after tomorrow, 28 April, Sunday

    Time Temperature Precipitation Wind Pressure Humidity
    00:00 +21°C° 0 mm 1 mps 644 mmHg 91%
    01:00 +21°C° 0 mm 1 mps 643 mmHg 93%
    02:00 +21°C° 0 mm 1 mps 643 mmHg 92%
    03:00 +21°C° 0 mm 1 mps 643 mmHg 92%
    04:00 +21°C° 0 mm 1 mps 642 mmHg 92%
    05:00 +21°C° 0 mm 1 mps 643 mmHg 89%
    06:00 +21°C° 0 mm 1 mps 643 mmHg 87%
    07:00 +21°C° 0 mm 1 mps 644 mmHg 85%
    08:00 +24°C° 0 mm 1 mps 645 mmHg 77%
    09:00 +26°C° 0 mm 1 mps 646 mmHg 69%
    10:00 +28°C° 0 mm 1 mps 647 mmHg 60%
    11:00 +29°C° 0.1 mm 1 mps 647 mmHg 56%
    12:00 +30°C° 0.1 mm 1 mps 647 mmHg 52%
    13:00 +31°C° 0.1 mm 1 mps 646 mmHg 48%
    14:00 +30°C° 0.3 mm 1 mps 646 mmHg 51%
    15:00 +30°C° 0.3 mm 1 mps 645 mmHg 53%
    16:00 +29°C° 0.3 mm 1 mps 644 mmHg 55%
    17:00 +27°C° 0.3 mm 1 mps 644 mmHg 65%
    18:00 +24°C° 0.3 mm 2 mps 644 mmHg 74%
    19:00 +21°C° 0.3 mm 2 mps 643 mmHg 84%
    20:00 +21°C° 0 mm 2 mps 644 mmHg 86%
    21:00 +21°C° 0 mm 1 mps 644 mmHg 89%
    22:00 +21°C° 0 mm 1 mps 645 mmHg 91%
    23:00 +21°C° 0 mm 1 mps 644 mmHg 91%

    29 April, Monday

    Time Temperature Precipitation Wind Pressure Humidity
    00:00 +21°C° 0 mm 1 mps 644 mmHg 92%
    01:00 +20°C° 0 mm 1 mps 644 mmHg 92%
    02:00 +20°C° 0 mm 1 mps 643 mmHg 92%
    03:00 +20°C° 0 mm 1 mps 643 mmHg 92%
    04:00 +20°C° 0 mm 1 mps 642 mmHg 91%
    05:00 +20°C° 0 mm 1 mps 643 mmHg 90%
    06:00 +21°C° 0 mm 1 mps 644 mmHg 88%
    07:00 +21°C° 0 mm 1 mps 644 mmHg 87%
    08:00 +24°C° 0.2 mm 1 mps 645 mmHg 77%
    09:00 +26°C° 0.2 mm 1 mps 646 mmHg 68%
    10:00 +29°C° 0.2 mm 1 mps 648 mmHg 59%
    11:00 +29°C° 0.4 mm 1 mps 647 mmHg 57%
    12:00 +30°C° 0.4 mm 1 mps 647 mmHg 56%
    13:00 +30°C° 0.4 mm 1 mps 646 mmHg 55%
    14:00 +29°C° 0.8 mm 1 mps 646 mmHg 57%
    15:00 +28°C° 0.8 mm 1 mps 645 mmHg 59%
    16:00 +28°C° 0.8 mm 1 mps 644 mmHg 62%
    17:00 +26°C° 0.6 mm 1 mps 644 mmHg 70%
    18:00 +24°C° 0.6 mm 1 mps 644 mmHg 78%
    19:00 +22°C° 0.6 mm 1 mps 644 mmHg 86%
    20:00 +22°C° 0.2 mm 1 mps 645 mmHg 89%
    21:00 +21°C° 0.2 mm 1 mps 645 mmHg 91%
    22:00 +21°C° 0.2 mm 1 mps 646 mmHg 93%
    23:00 +21°C° 0 mm 1 mps 645 mmHg 94%

    30 April, Tuesday

    Time Temperature Precipitation Wind Pressure Humidity
    00:00 +21°C° 0 mm 1 mps 644 mmHg 95%
    01:00 +20°C° 0 mm 1 mps 644 mmHg 95%
    02:00 +20°C° 0 mm 1 mps 643 mmHg 94%
    03:00 +20°C° 0 mm 1 mps 643 mmHg 93%
    04:00 +20°C° 0 mm 1 mps 643 mmHg 92%
    05:00 +20°C° 0 mm 1 mps 643 mmHg 89%
    06:00 +21°C° 0 mm 1 mps 644 mmHg 86%
    07:00 +19°C° 0 mm 0 mps 645 mmHg 82%
    08:00 +22°C° 0.2 mm 0 mps 646 mmHg 74%
    09:00 +25°C° 0.2 mm 0 mps 647 mmHg 65%
    10:00 +27°C° 0.2 mm 0 mps 648 mmHg 57%
    11:00 +30°C° 0.4 mm 1 mps 647 mmHg 54%
    12:00 +30°C° 0.4 mm 1 mps 647 mmHg 52%
    13:00 +31°C° 0.4 mm 1 mps 646 mmHg 49%
    14:00 +30°C° 0.6 mm 2 mps 645 mmHg 53%
    15:00 +29°C° 0.6 mm 2 mps 645 mmHg 56%
    16:00 +28°C° 0.6 mm 2 mps 644 mmHg 59%
    17:00 +26°C° 0.7 mm 2 mps 644 mmHg 69%
    18:00 +24°C° 0.7 mm 2 mps 644 mmHg 79%
    19:00 +21°C° 0.7 mm 2 mps 644 mmHg 89%
    20:00 +21°C° 1 mm 2 mps 644 mmHg 90%
    21:00 +21°C° 1 mm 1 mps 644 mmHg 91%
    22:00 +21°C° 1 mm 1 mps 644 mmHg 92%
    23:00 +21°C° 0.5 mm 1 mps 644 mmHg 91%

    1 May, Wednesday

    Time Temperature Precipitation Wind Pressure Humidity
    00:00 +21°C° 0.5 mm 1 mps 644 mmHg 90%
    01:00 +20°C° 0.5 mm 1 mps 643 mmHg 88%
    02:00 +20°C° 0 mm 1 mps 643 mmHg 86%
    03:00 +20°C° 0 mm 1 mps 642 mmHg 83%
    04:00 +18°C° 0 mm 0 mps 642 mmHg 80%
    05:00 +20°C° 0 mm 1 mps 643 mmHg 79%
    06:00 +21°C° 0 mm 1 mps 643 mmHg 79%
    07:00 +21°C° 0 mm 1 mps 644 mmHg 78%
    08:00 +24°C° 0.1 mm 1 mps 645 mmHg 71%
    09:00 +26°C° 0.1 mm 1 mps 646 mmHg 63%
    10:00 +29°C° 0.1 mm 1 mps 647 mmHg 55%
    11:00 +29°C° 0.9 mm 1 mps 646 mmHg 56%
    12:00 +29°C° 0.9 mm 1 mps 646 mmHg 56%
    13:00 +29°C° 0.9 mm 2 mps 645 mmHg 57%
    14:00 +28°C° 2.1 mm 2 mps 644 mmHg 62%
    15:00 +27°C° 2.1 mm 1 mps 644 mmHg 66%
    16:00 +27°C° 2.1 mm 1 mps 643 mmHg 71%
    17:00 +25°C° 1.3 mm 1 mps 643 mmHg 76%
    18:00 +24°C° 1.3 mm 1 mps 643 mmHg 80%
    19:00 +22°C° 1.3 mm 1 mps 643 mmHg 84%
    20:00 +22°C° 0.5 mm 1 mps 643 mmHg 86%
    21:00 +21°C° 0.5 mm 1 mps 643 mmHg 88%
    22:00 +21°C° 0.5 mm 1 mps 643 mmHg 91%
    23:00 +21°C° 0.1 mm 1 mps 643 mmHg 91%
    Show more